Weather Roundup
Issued by NWS

Home | Current Version | Previous Version | Graphics & Text | Print | Product List | Glossary Off
Versions: 1 2 3 4 5 6 7 8 9 10 11 12 13 14 15 16 17 18 19 20 21 22 23 24 25 26 27 28 29 30 31 32 33 34 35 36 37 38 39 40 41 42 43 44 45 46 47 48 49 50

000
NZUS93 KARX 311159
HRRWXR

CURRENT HOURLY OBSERVATIONS ACROSS
MUCH OF THE UPPER MISSISSIPPI VALLEY
NATIONAL WEATHER SERVICE LA CROSSE WI
700 AM CDT THU JUL 31 2014


...SOUTHEAST MINNESOTA...


CITY           SKY/WX    TMP DP  RH WIND       PRES   REMARKS
ROCHESTER      CLEAR     58  54  86 W9        30.07S
ROCHESTER/MAYO FAIR      60  54  79 W3        30.06S
WINONA         SUNNY     59  55  88 CALM      30.03S
AUSTIN         CLEAR     55  54  94 CALM      30.07R
ALBERT LEA     PTCLDY    61  55  82 CALM      30.08R
DODGE CENTER   CLEAR     55  54  94 W8        30.07R
PRESTON        CLEAR     58  58  97 W7        30.06S
OWATONNA       CLEAR     55  54  94 CALM      30.07S FOG
FARIBAULT      CLEAR     61  54  77 CALM      30.06S
$$

...ELSEWHERE IN MINNESOTA...


CITY           SKY/WX    TMP DP  RH WIND       PRES   REMARKS
MINNEAPOLIS    PTCLDY    63  59  87 SW3       30.04S
INTNL FALLS    SUNNY     49  48  97 CALM      30.00S
DULUTH         SUNNY     59  55  87 NW6       29.99S
RED WING       CLEAR     57  55  94 CALM      30.03R FOG
REDWOOD FALLS  CLEAR     57  54  89 W5        30.07R
MANKATO        CLEAR     57  52  82 W3        30.07S
WORTHINGTON    MOCLDY    59  54  82 W6        30.11S
FAIRMONT       CLOUDY    59  52  77 W5        30.08S
$$

...SOUTHWEST WISCONSIN...


CITY           SKY/WX    TMP DP  RH WIND       PRES   REMARKS
LA CROSSE      SUNNY     63  59  87 SE5       30.02S
PRAIRIE DU CHI SUNNY     58  55  91 CALM      30.04S
BOSCOBEL       SUNNY     59  57  93 SW5       30.04S FOG
LONE ROCK      FOG       59  55  88 CALM      30.03S VSB 1
PLATTEVILLE    SUNNY     58  57  96 SW5       30.06R
FORT MC COY    SUNNY     53  52  97 CALM      30.03S
VIROQUA        FAIR      57  57 100 CALM      30.04S
WIS DELLS      SUNNY     58  55  90 CALM      30.02S
$$

...ELSEWHERE IN WISCONSIN...


CITY           SKY/WX    TMP DP  RH WIND       PRES   REMARKS
MILWAUKEE      MOSUNNY   64  55  72 W6        30.01R
MADISON        SUNNY     64  58  80 CALM      30.01S
GREEN BAY      SUNNY     57  57 100 CALM      29.98R
EAU CLAIRE     NOT AVBL
BLACK RVR FLS  FAIR      55  55 100 CALM      30.01S FOG
MEDFORD        SUNNY     55  55 100 CALM      30.01R FOG
WAUSAU         SUNNY     59  58  96 NW6       29.99R
WIS RAPIDS     SUNNY     59  58  96 NW3       30.01S
MARSHFIELD     SUNNY     59  57  93 NW8       30.00S
RICE LAKE      SUNNY     56  55  96 CALM      30.03S
$$

...NORTHEAST IOWA...


CITY           SKY/WX    TMP DP  RH WIND       PRES   REMARKS
WATERLOO       CLEAR     57  55  93 CALM      30.07R
DUBUQUE        SUNNY     56  55  97 SW3       30.06S
DECORAH        SUNNY     57  55  94 CALM      30.05S
MASON CITY     CLEAR     58  55  90 W7        30.10R
CHARLES CITY   CLEAR     55  55 100 W3        30.08S
OELWEIN        CLEAR     55  55 100 W3        30.08R FOG
$$

...ELSEWHERE IN IOWA...


CITY           SKY/WX    TMP DP  RH WIND       PRES   REMARKS
DES MOINES     PTCLDY    60  56  86 SW3       30.10R
IOWA CITY      CLEAR     60  58  92 W5        30.08S
FORT DODGE     CLEAR     54  52  94 CALM      30.11R
MARSHALLTOWN   CLEAR     55  55 100 W5        30.08S FOG
CEDAR RAPIDS   CLEAR     58  57  97 CALM      30.07R
$$

...NORTHERN ILLINOIS...


CITY           SKY/WX    TMP DP  RH WIND       PRES   REMARKS
CHICAGO-OHARE  PTSUNNY   64  55  72 NW5       30.02S
DUPAGE         SUNNY     59  55  87 CALM      30.03S
CHICAGO-MIDWAY MOSUNNY   65  60  84 SW5       30.03S
MOLINE         SUNNY     60  57  89 SW3       30.06R
ROCKFORD       MOSUNNY   58  55  90 S5        30.05F
STERLING       SUNNY     59  55  88 W3        30.06S
PEORIA         SUNNY     62  57  83 CALM      30.07S
$$

NOTE: "FAIR" INDICATES FEW OR NO CLOUDS BELOW 12,000 FEET WITH NO
SIGNIFICANT WEATHER AND/OR OBSTRUCTIONS TO VISIBILITY. WIND
SPEEDS ARE IN MILES-PER-HOUR.



USA.gov is the U.S. government's official web portal to all federal, state and local government web resources and services.